EST,Max TemperatureF,Mean TemperatureF,Min TemperatureF,Max Dew PointF,MeanDew PointF,Min DewpointF,Max Humidity, Mean Humidity, Min Humidity, Max Sea Level PressureIn, Mean Sea Level PressureIn, Min Sea Level PressureIn, Max VisibilityMiles, Mean VisibilityMiles, Min VisibilityMiles, Max Wind SpeedMPH, Mean Wind SpeedMPH, Max Gust SpeedMPH,PrecipitationIn, CloudCover, Events, WindDirDegrees
2012-12-1,56,45,33,39,36,29,89,72,55,30.31,30.24,30.14,10,10,7,22,8,29,0.00,6,,146
2012-12-2,56,53,50,54,49,40,100,78,55,30.14,30.04,29.95,10,4,0,25,15,35,0.71,7,Fog-Rain,224
2012-12-3,63,55,47,55,51,46,100,86,72,30.20,30.14,30.05,10,5,0,22,8,31,0.00,6,Fog,163
2012-12-4,64,55,45,54,49,40,100,82,63,30.06,30.00,29.93,10,8,0,28,14,40,0.38,6,Fog-Rain,230
2012-12-5,45,39,32,39,27,20,89,73,56,30.40,30.27,30.08,10,10,10,17,9,24,0.00,7,,323
2012-12-6,46,36,26,24,21,19,81,58,34,30.40,30.22,30.01,10,10,10,16,5,21,0.00,1,,153
2012-12-7,47,44,40,43,38,23,92,69,45,30.01,29.96,29.90,10,8,2,15,6,21,0.05,7,Rain,185
2012-12-8,49,43,37,47,42,30,100,88,76,30.17,29.87,29.77,10,4,0,15,6,22,0.24,8,Fog-Rain,299
2012-12-9,52,43,34,48,35,28,86,78,70,30.21,30.00,29.68,10,10,5,22,10,33,0.20,7,Rain,93
2012-12-10,56,46,36,52,40,29,93,85,76,29.81,29.64,29.54,10,6,1,22,10,30,0.27,8,Rain,266
2012-12-11,38,35,32,29,26,22,75,67,59,30.22,30.01,29.83,10,10,4,17,9,23,0.01,7,Snow,260
2012-12-12,41,35,29,27,23,21,78,64,50,30.45,30.35,30.23,10,10,10,16,7,21,0.00,2,,209
2012-12-13,45,36,26,24,20,17,75,54,33,30.45,30.37,30.23,10,10,10,15,7,20,0.00,0,,185
2012-12-14,44,37,29,35,27,19,92,70,48,30.27,30.24,30.20,10,9,3,16,6,22,0.00,0,,230
2012-12-15,49,39,28,29,26,24,92,66,39,30.23,30.10,29.84,10,9,4,21,7,28,T,3,Rain,149
2012-12-16,60,54,47,49,40,28,83,66,49,29.81,29.72,29.66,10,10,10,24,14,35,0.01,6,Rain,175
2012-12-17,52,47,42,48,40,36,89,80,70,29.77,29.67,29.54,10,9,2,14,7,20,0.42,7,Rain,312
2012-12-18,43,39,35,41,34,28,96,80,64,29.82,29.68,29.51,10,8,2,17,10,26,0.52,7,Rain,276
2012-12-19,41,36,31,36,34,30,96,88,79,30.18,29.99,29.79,9,6,3,8,3,10,0.01,8,Rain,219
2012-12-20,45,40,35,39,33,28,85,73,60,30.16,29.69,29.30,10,9,5,33,17,47,0.21,6,Rain,147
2012-12-21,43,38,33,34,30,25,92,81,69,29.63,29.34,29.23,10,4,0,29,15,41,0.34,8,Fog-Rain-Snow,249
2012-12-22,35,33,30,28,24,21,85,74,63,30.03,29.86,29.61,10,7,1,30,17,44,0.11,8,Snow,289
2012-12-23,35,29,23,27,22,16,81,71,61,30.04,29.95,29.87,10,10,10,20,10,23,0.00,6,,241
2012-12-24,36,32,28,30,25,19,100,78,56,30.03,29.91,29.82,10,7,1,14,4,17,0.13,6,Snow,64
2012-12-25,35,34,32,31,27,21,92,77,61,30.30,30.13,29.88,10,9,4,17,8,23,T,8,Snow,33
2012-12-26,32,29,25,27,23,18,92,78,63,30.27,29.89,29.71,10,4,0,28,17,37,0.49,7,Fog-Snow,64
2012-12-27,32,30,27,27,24,21,92,84,75,30.12,29.87,29.71,10,7,1,23,11,29,0.17,8,Rain-Snow,357
2012-12-28,32,27,22,24,23,19,88,79,69,30.16,30.10,30.00,10,10,5,13,4,17,T,7,Snow,265
2012-12-29,33,30,26,28,25,20,92,84,75,29.96,29.80,29.67,10,3,0,16,8,22,0.35,8,Fog-Snow,10
2012-12-30,32,28,24,27,23,16,92,78,63,30.31,30.14,29.91,10,7,1,20,14,29,0.07,8,Snow,283
2012-12-31,34,28,22,30,23,16,89,74,59,30.25,30.03,29.94,10,6,1,24,14,32,0.12,5,Snow,218